Weather History for Poteau, OK

Change the Weather History Date:

Sunday, January 6, 2013

  Actual Average (KFSM) Record (KFSM)
Temperature  
Mean Temperature 38 °F 39 °F  
Max Temperature 51 °F 49 °F 76 °F (2008)
Min Temperature 26 °F 29 °F 3 °F (1912)
Degree Days  
Heating Degree Days 26 26  
Month to date heating degree days 156  
Since 1 July heating degree days 1455  
Moisture  
Dew Point 30 °F    
Average Humidity 78    
Maximum Humidity 100    
Minimum Humidity 41    
Precipitation  
Precipitation 0.00 in 0.09 in 1.09 in (1988)
Month to date precipitation 0.54  
Year to date precipitation 0.54  
Sea Level Pressure  
Sea Level Pressure 30.35 in    
Wind  
Wind Speed 3 mph (WNW)    
Max Wind Speed 9 mph    
Max Gust Speed -    
Visibility 9 miles    
Events      
T = Trace of Precipitation, MM = Missing Value Source: NWS Daily Summary

Daily Weather History Graph

Daily Weather History Graph

Search for Another Location

Airport:

Trip Planner

Search our weather history database for the weather conditions in past years. The results will help you decide how hot, cold, wet, or windy it might be!

Date:

Astronomy

Jan. 06, 2013 Rise Set
Actual Time 7:27 AM CST 5:22 PM CST
Civil Twilight 6:59 AM CST 5:50 PM CST
Nautical Twilight 6:27 AM CST 6:21 PM CST
Astronomical Twilight 5:57 AM CST 6:52 PM CST
Moon 1:47 AM CST (1/6) 12:45 PM CST (1/6)
Length of Visible Light 10h 50m
Length of Day
9h 55m
Waning Crescent, 33% of the Moon is Illuminated
Jan 6
Waning Crescent
Jan 11
New
Jan 18
First Quarter
Jan 26
Full
Feb 3
Last Quarter

Hourly Weather History & Observations

Time (CST) Temp. Windchill Dew Point Humidity Pressure Visibility Wind Dir Wind Speed Gust Speed Precip Events Conditions
12:15 AM 32.0 °F 28.7 °F 32.0 °F 100% 30.29 in 7.0 mi SW 3.5 mph - N/A   Clear
12:35 AM 32.0 °F 28.7 °F 32.0 °F 100% 30.29 in 7.0 mi SSW 3.5 mph - N/A   Clear
12:55 AM 32.0 °F 25.6 °F 32.0 °F 100% 30.29 in 10.0 mi SW 6.9 mph - N/A   Clear
1:15 AM 32.0 °F 26.4 °F 32.0 °F 100% 30.29 in 7.0 mi SW 5.8 mph - N/A   Clear
1:35 AM 33.8 °F 26.4 °F 33.8 °F 100% 30.29 in 10.0 mi WSW 9.2 mph - N/A   Clear
1:55 AM 35.6 °F 29.2 °F 35.6 °F 100% 30.29 in 10.0 mi SW 8.1 mph - N/A   Clear
2:15 AM 35.6 °F 29.9 °F 35.6 °F 100% 30.29 in 10.0 mi SW 6.9 mph - N/A   Clear
2:35 AM 33.8 °F 26.4 °F 33.8 °F 100% 30.30 in 10.0 mi SSW 9.2 mph - N/A   Clear
2:55 AM 35.6 °F 29.9 °F 35.6 °F 100% 30.30 in 10.0 mi South 6.9 mph - N/A   Clear
3:15 AM 33.8 °F 28.6 °F 32.0 °F 93% 30.30 in 10.0 mi SSW 5.8 mph - N/A   Clear
3:35 AM 33.8 °F 28.6 °F 32.0 °F 93% 30.31 in 10.0 mi SSW 5.8 mph - N/A   Clear
4:15 AM 32.0 °F - 32.0 °F 100% 30.30 in 10.0 mi Calm Calm - N/A   Clear
4:35 AM 32.0 °F - 32.0 °F 100% 30.31 in 10.0 mi Calm Calm - N/A   Clear
4:55 AM 32.0 °F - 32.0 °F 100% 30.31 in 4.0 mi Calm Calm - N/A   Clear
5:35 AM 30.2 °F - 30.2 °F 100% 30.32 in 4.0 mi Calm Calm - N/A   Clear
5:55 AM 30.2 °F - 30.2 °F 100% 30.33 in 4.0 mi Calm Calm - N/A   Clear
6:15 AM 30.2 °F - 30.2 °F 100% 30.33 in 5.0 mi Calm Calm - N/A   Clear
6:35 AM 30.2 °F - 30.2 °F 100% 30.34 in 5.0 mi Calm Calm - N/A   Clear
6:55 AM 30.2 °F - 30.2 °F 100% 30.34 in 5.0 mi Calm Calm - N/A   Clear
7:15 AM 28.4 °F - 28.4 °F 100% 30.36 in 5.0 mi Calm Calm - N/A   Clear
7:35 AM 30.2 °F - 30.2 °F 100% 30.36 in 3.0 mi Calm Calm - N/A   Clear
7:55 AM 30.2 °F - 30.2 °F 100% 30.37 in 4.0 mi Calm Calm - N/A   Clear
8:15 AM 30.2 °F - 30.2 °F 100% 30.37 in 5.0 mi Calm Calm - N/A   Clear
8:35 AM 32.0 °F - 32.0 °F 100% 30.37 in 5.0 mi Calm Calm - N/A   Clear
8:55 AM 33.8 °F - 32.0 °F 93% 30.38 in 7.0 mi Calm Calm - N/A   Clear
9:15 AM 37.4 °F - 32.0 °F 81% 30.39 in 10.0 mi Calm Calm - N/A   Clear
9:35 AM 37.4 °F - 32.0 °F 81% 30.39 in 10.0 mi Calm Calm - N/A   Scattered Clouds
9:55 AM 41.0 °F 38.0 °F 30.2 °F 65% 30.39 in 10.0 mi North 4.6 mph - N/A   Scattered Clouds
10:15 AM 41.0 °F - 32.0 °F 70% 30.40 in 10.0 mi Calm Calm - N/A   Clear
10:35 AM 42.8 °F 41.1 °F 30.2 °F 61% 30.40 in 10.0 mi NNE 3.5 mph - N/A   Clear
10:55 AM 42.8 °F 38.0 °F 30.2 °F 61% 30.40 in 10.0 mi North 8.1 mph - N/A   Clear
11:15 AM 42.8 °F - 30.2 °F 61% 30.39 in 10.0 mi Calm Calm - N/A   Clear
11:35 AM 44.6 °F - 30.2 °F 57% 30.38 in 10.0 mi Calm Calm - N/A   Clear
11:55 AM 44.6 °F 43.1 °F 30.2 °F 57% 30.38 in 10.0 mi SSW 3.5 mph - N/A   Clear
12:15 PM 46.4 °F - 30.2 °F 53% 30.37 in 10.0 mi Calm Calm - N/A   Clear
12:35 PM 48.2 °F - 30.2 °F 50% 30.37 in 10.0 mi Calm Calm - N/A   Clear
12:55 PM 48.2 °F - 30.2 °F 50% 30.36 in 10.0 mi North 3.5 mph - N/A   Scattered Clouds
1:15 PM 50.0 °F - 32.0 °F 50% 30.36 in 10.0 mi NNW 4.6 mph - N/A   Clear
1:35 PM 51.8 °F - 32.0 °F 47% 30.36 in 10.0 mi North 8.1 mph - N/A   Clear
1:55 PM 51.8 °F - 32.0 °F 47% 30.35 in 10.0 mi NNW 8.1 mph - N/A   Clear
2:15 PM 51.8 °F - 30.2 °F 44% 30.35 in 10.0 mi North 5.8 mph - N/A   Clear
2:35 PM 51.8 °F - 30.2 °F 44% 30.34 in 10.0 mi North 8.1 mph - N/A   Clear
2:55 PM 51.8 °F - 30.2 °F 44% 30.34 in 10.0 mi North 5.8 mph - N/A   Clear
3:15 PM 51.8 °F - 28.4 °F 41% 30.34 in 10.0 mi North 8.1 mph - N/A   Clear
3:35 PM 51.8 °F - 28.4 °F 41% 30.35 in 10.0 mi Calm Calm - N/A   Clear
3:55 PM 51.8 °F - 28.4 °F 41% 30.35 in 10.0 mi North 6.9 mph - N/A   Clear
4:15 PM 51.8 °F - 30.2 °F 44% 30.34 in 10.0 mi North 8.1 mph - N/A   Clear
4:35 PM 51.8 °F - 30.2 °F 44% 30.34 in 10.0 mi North 5.8 mph - N/A   Clear
4:55 PM 50.0 °F - 30.2 °F 47% 30.35 in 10.0 mi North 3.5 mph - N/A   Clear
5:15 PM 46.4 °F - 28.4 °F 50% 30.35 in 10.0 mi Calm Calm - N/A   Clear
5:35 PM 44.6 °F - 28.4 °F 53% 30.35 in 10.0 mi Calm Calm - N/A   Clear
5:55 PM 41.0 °F - 30.2 °F 65% 30.35 in 10.0 mi Calm Calm - N/A   Clear
6:15 PM 39.2 °F - 30.2 °F 70% 30.35 in 10.0 mi Calm Calm - N/A   Clear
6:35 PM 37.4 °F - 30.2 °F 75% 30.35 in 10.0 mi Calm Calm - N/A   Clear
6:55 PM 33.8 °F 30.8 °F 28.4 °F 81% 30.35 in 10.0 mi South 3.5 mph - N/A   Clear
7:15 PM 33.8 °F - 28.4 °F 81% 30.35 in 10.0 mi Calm Calm - N/A   Clear
7:35 PM 33.8 °F - 28.4 °F 81% 30.36 in 10.0 mi Calm Calm - N/A   Clear
7:55 PM 32.0 °F 27.5 °F 28.4 °F 87% 30.36 in 10.0 mi South 4.6 mph - N/A   Clear
8:15 PM 32.0 °F - 28.4 °F 87% 30.36 in 10.0 mi Calm Calm - N/A   Clear
8:35 PM 32.0 °F - 28.4 °F 87% 30.37 in 10.0 mi Calm Calm - N/A   Clear
9:15 PM 32.0 °F - 28.4 °F 87% 30.38 in 10.0 mi Calm Calm - N/A   Clear
9:55 PM 30.2 °F - 28.4 °F 93% 30.39 in 10.0 mi Calm Calm - N/A   Clear
10:15 PM 30.2 °F - 28.4 °F 93% 30.38 in 10.0 mi Calm Calm - N/A   Clear
10:35 PM 28.4 °F - 26.6 °F 93% 30.38 in 10.0 mi Calm Calm - N/A   Clear
10:55 PM 30.2 °F - 28.4 °F 93% 30.39 in 10.0 mi Calm Calm - N/A   Clear
11:35 PM 26.6 °F - 24.8 °F 93% 30.38 in 10.0 mi Calm Calm - N/A   Clear
11:55 PM 26.6 °F - 26.6 °F 100% 30.38 in 10.0 mi Calm Calm - N/A   Clear